FW5642 Weather Reports


Display with metric or nautical units.
time (UTC)temp
F
wind
direction
speed
MPH
gust
MPH
rain 1hr
in
rain 24hr
in
rain mn
in
humidity
%
barometer
mb
20260504090104 54 315 0.0 0.0 0.00 0.00 0.00 73 1011.1
20260504081536 54 18 0.0 4.0 0.00 0.00 0.00 74 1011.2
20260504043032 62 162 0.0 3.0 0.00 0.00 0.00 63 1010.3
20260504041536 62 90 0.0 0.0 0.00 0.00 0.00 62 1010.1
20260504040109 63 90 0.0 0.0 0.00 0.00 0.00 60 1009.9
20260504034536 65 90 0.0 0.0 0.00 0.00 0.00 58 1009.7
20260504033036 67 90 0.0 0.0 0.00 0.00 0.00 56 1009.5
20260504031533 70 90 0.0 0.0 0.00 0.00 0.00 53 1009.3
20260504030031 72 90 0.0 3.0 0.00 0.00 0.00 54 1009.3
20260504024535 75 68 0.0 1.0 0.00 0.00 0.00 50 1009.3
20260504021653 80 67 0.0 0.0 0.00 0.00 0.00 39 1009.5
20260504020031 82 67 0.0 3.0 0.00 0.00 0.00 32 1009.6
20260504014535 83 98 0.0 4.0 0.00 0.00 0.00 29 1009.7
20260504011537 85 19 1.0 6.0 0.00 0.00 0.00 27 1009.9
20260504010035 86 50 0.0 4.0 0.00 0.00 0.00 26 1010.1
20260504003037 88 360 1.0 6.0 0.00 0.00 0.00 25 1010.3
20260504001532 90 64 1.0 7.0 0.00 0.00 0.00 24 1010.5
20260503234535 90 330 1.0 7.0 0.00 0.00 0.00 25 1010.8
20260503233037 90 336 2.0 7.0 0.00 0.00 0.00 25 1011.0
20260503231531 90 8 2.0 8.0 0.00 0.00 0.00 24 1011.2
20260503230106 91 4 1.0 7.0 0.00 0.00 0.00 24 1011.5
20260503224535 91 57 1.0 5.0 0.00 0.00 0.00 25 1011.8
20260503223106 90 113 1.0 7.0 0.00 0.00 0.00 26 1012.0
20260503220034 88 56 2.0 8.0 0.00 0.00 0.00 27 1012.5
20260503214534 88 44 2.0 7.0 0.00 0.00 0.00 29 1012.7
20260503213035 88 354 1.0 5.0 0.00 0.00 0.00 31 1012.9
20260503211534 86 196 1.0 6.0 0.00 0.00 0.00 33 1013.2
20260503210033 85 304 1.0 4.0 0.00 0.00 0.00 33 1013.5
20260503204531 83 67 1.0 5.0 0.00 0.00 0.00 34 1013.6
20260503203033 82 24 3.0 6.0 0.00 0.00 0.00 35 1013.8
20260503201533 81 118 0.0 8.0 0.00 0.00 0.00 37 1014.0
20260503200029 80 63 1.0 5.0 0.00 0.00 0.00 38 1014.2
20260503194604 81 7 3.0 7.0 0.00 0.00 0.00 38 1014.4
20260503193031 81 345 2.0 7.0 0.00 0.00 0.00 39 1014.6
20260503184534 79 347 2.0 6.0 0.00 0.00 0.00 44 1015.1
20260503183029 78 342 2.0 6.0 0.00 0.00 0.00 47 1015.3
20260503181534 78 357 2.0 5.0 0.00 0.00 0.00 49 1015.5
20260503180031 76 345 1.0 4.0 0.00 0.00 0.00 52 1015.6
20260503174536 75 357 0.0 4.0 0.00 0.00 0.00 56 1015.8